Location: Saint-Palais-sur-Mer
(45.6429°N, 1.0859°W)
Time: 00:51:56
(UTC+02:00)

Max Valier Satellite - Visible Passes

Search period start: 25 April 2024 00:00
Search period end: 05 May 2024 00:00
Orbit: 357 x 362 km, 97.1° (Epoch: 24 April)

Date Brightness Start Highest point End Pass type
(mag) Time Alt. Az. Time Alt. Az. Time Alt. Az.
26 Apr ? 21:56:51 10° SSW 21:59:27 32° W 22:02:05 10° NNW visible
27 Apr ? 22:25:43 10° SW 22:27:16 14° W 22:28:50 10° WNW visible
29 Apr ? 21:47:58 10° S 21:50:42 44° W 21:53:28 10° NNW visible
30 Apr ? 22:15:30 10° SW 22:17:36 18° W 22:19:41 10° NW visible
03 May ? 22:02:47 10° SSW 22:05:17 27° W 22:07:48 10° NW visible
04 May ? 22:29:41 10° WSW 22:31:02 13° W 22:32:23 10° WNW visible
